Retour au catalogue

FENGYUN 1C DEB

ActifSSO
NORAD 30257·DEBRIS·🇨🇳 China

Lancé May 10, 1999 depuis Taiyuan Satellite Launch Center

Loading…

Prochains Passages (prochaines 24 heures)

TLE

FraisSource: Space-Track

Époque: Sep 14, 2026, 06:45 UTC

1 30257U 99025XS  26257.28142940  .00000198  00000-0  13457-3 0  9995
2 30257  98.7625 253.4120 0059401  40.7158 333.4493 14.09854226 10974

Suivez FENGYUN 1C DEB en temps réel avec AllMySat

Download on the App Store